DECAYED

OBJECT Q, 47946 (Decayed)

Orbit data source: Space-Track

You're viewing an Uncataloged Satellite

Recently launched and/or uncataloged satellites may have evolving metadata. Metadata may include but not limited to: Owner, Maufacturer, Bus, Motor, and Mission.

OBJECT Q, 47946 was a satellite in LEO that was launched on Mon, 22 Mar 2021 UTC via a SOYUZ-2-1A launch vehicle from the Tyuratam Missile And Space Complex (TTMTR). Unknown objects in Earth's orbit typically refer to objects detected orbiting the Earth but have not yet been identified or cataloged. These objects could be anything from previously untracked satellites, spent rocket stages, debris from satellite collisions, or even natural meteoroids temporarily captured by Earth's gravity. This object's orbit decayed before it could be identified.

Not visible in the next 10 days
Identifier
47946, 2021-022Q
Orbit
Decayed
Country
Flag of TBDTBD
Related business
None
Manufacturer
Unknown
Mission
Decayed Commercial Technology
Bus & Motor
Unknown
Mass
Unknown
Launch date (UTC)
2021-03-22 (5 years ago)
Launch vehicle
SOYUZ-2-1A
Launch site
Tyuratam Missile And Space Complex (TTMTR)
Object type
Unknown
Shape & HBR
Unknown shape, 0.3 m
Radar Cross Section
Medium (>0.1 m² and <1 m²)

Expand to show TLE details & history
Last TLE update: 7 months ago

TLE from 7 months ago
0 OBJECT Q
1 47946U 21022Q   25316.72238787  .11822108  26497-5  96220-3 0  9996
2 47946  97.3833 235.5563 0007164 145.3688 214.8079 16.39929835258042
Epoch: 2025-11-12T17:20Z
TLE epoch observation values (Epoch: 2025-11-12T17:20:14.311Z)
Latitude
-0.00008°
Longitude
-76.59383°
Altitude
173.092 km
Speed
7.8 km/s
True Right ascension
15h 42m 13s
True Declination
0° 00' 00"
Sunlit
Object was in daylight at epoch
Visualization orbit readout
Latitude
Unknown
Longitude
Unknown
Altitude
Unknown
Speed
Unknown
Apparent Right ascension
Unknown
Apparent Declination
Unknown
Sunlit
N/A
Visualization observer readout
Local Sidereal Time
21:43:00
Azimuth
Unknown
Elevation
Unknown
Doppler factor
Unknown
Orbital elements
Apogee altitude
167.482 km
Perigee altitude
158.11 km
Semi-major axis
6,540.933 km
Eccentricity
0.00072
Inclination
97.3833°
RAAN
235.5563°
Arg. of periapsis
145.3688°
True anomaly
214.76107°
Mean anomaly
214.8079°
Eccentric anomaly
214.78448°
Mean motion
4.10283 °/min
Orbital period
87.74 mins
BSTAR
0.0009622
Loading maneuver chart data...
Computing Atmospheric mass density...

Documentation

Showing up to 5 results
|